FENGYUN 1C DEB, 30320

Orbit data source: Space-Track

FENGYUN 1C DEB, 30320 is space debris in SSO originally from a launch on Mon, 10 May 1999 UTC launched from the Taiyaun Space Center, China (TSC). Fengyun 1C debris stems from the Chinese weather satellite Fengyun-1C, which was intentionally destroyed by a Chinese anti-satellite missile in 2007. This event dramatically increased the amount of space debris, with thousands of trackable fragments posing hazards to satellites and human spaceflight. The Fengyun 1C debris cloud has become a focal point in discussions about space sustainability and the need for international regulations to prevent the creation of new debris.

Loading next visibility...
Identifier
30320, 1999-025AAH
Orbit
SSO
Country
Flag of CNCN / PRC
Related business
Manufacturer
Unknown
Mission
Spacecraft
Bus & Motor
Unknown
Mass
Unknown
Launch date (UTC)
1999-05-10 (27 years ago)
Launch vehicle
Unknown
Launch site
Taiyaun Space Center, China (TSC)
Object type
Payload
Rocket body
Debris
Shape & HBR
Unknown shape, 0.1 m
Radar Cross Section
Small (<0.1 m²)

Expand to show TLE details & history
Last TLE update: 1 day ago

TLE from 1 day ago
0 FENGYUN 1C DEB
1 30320U 99025AAH 26104.12216661  .00000181  00000-0  15337-3 0  9993
2 30320  99.1661 168.5210 0085059 319.8843  69.2900 13.98637243981187
Epoch: 2026-04-14T02:55Z
TLE epoch observation values (Epoch: 2026-04-14T02:55:55.195Z)
Latitude
29.71692°
Longitude
-83.01847°
Altitude
880.756 km
Speed
7.425 km/s
True Right ascension
10h 53m 03s
True Declination
29° 34' 18"
Sunlit
Object was in full shadow at epoch
Visualization orbit readout
Latitude
Unknown
Longitude
Unknown
Altitude
Unknown
Speed
Unknown
Apparent Right ascension
Unknown
Apparent Declination
Unknown
Sunlit
N/A
Visualization observer readout
Local Sidereal Time
14:18:40
Azimuth
Unknown
Elevation
Unknown
Doppler factor
Unknown
Orbital elements
Apogee altitude
957.598 km
Perigee altitude
833.856 km
Semi-major axis
7,273.864 km
Eccentricity
0.00851
Inclination
99.1661°
RAAN
168.521°
Arg. of periapsis
319.8843°
True anomaly
70.20512°
Mean anomaly
69.29°
Eccentric anomaly
69.74722°
Mean motion
3.49861 °/min
Orbital period
102.9 mins
BSTAR
0.00015337
Loading maneuver chart data...
Computing Atmospheric mass density...
Loading historical data...
Loading historical data...
Loading historical data...
Loading historical data...
Loading historical data...
Loading historical data...
Loading historical data...

Documentation

Showing up to 5 results
|